DW4465 Weather Reports


Display with metric or nautical units.
time (UTC)temp
F
wind
direction
speed
MPH
gust
MPH
rain 1hr
in
rain 24hr
in
rain mn
in
humidity
%
barometer
mb
20260905130052 61 0 0.0 0.0 0.00 0.00 0.00 87 1012.8
20260905124558 61 0 0.0 0.0 0.00 0.00 0.00 87 1012.7
20260905123058 61 0 0.0 0.0 0.00 0.00 0.00 87 1012.8
20260905121549 62 0 0.0 0.0 0.00 0.00 0.00 87 1012.9
20260905120059 62 0 0.0 0.0 0.00 0.00 0.00 87 1012.8
20260905114626 62 0 0.0 0.0 0.00 0.00 0.00 87 1012.8
20260905113050 62 0 0.0 0.0 0.00 0.00 0.00 86 1012.9
20260905111553 63 0 0.0 0.0 0.00 0.00 0.00 86 1013.0
20260905110044 63 0 0.0 0.0 0.00 0.00 0.00 86 1013.1
20260905104556 63 0 0.0 0.0 0.00 0.00 0.00 86 1013.1
20260905103052 63 0 0.0 0.0 0.00 0.00 0.00 86 1013.2
20260905101547 64 0 0.0 0.0 0.00 0.00 0.00 86 1013.2
20260905100114 64 0 0.0 0.0 0.00 0.00 0.00 86 1013.3
20260905094552 64 0 0.0 0.0 0.00 0.00 0.00 86 1013.3
20260905093054 64 0 0.0 0.0 0.00 0.00 0.00 85 1013.2
20260905091558 64 0 0.0 0.0 0.00 0.00 0.00 85 1013.3
20260905090044 64 0 0.0 0.0 0.00 0.00 0.00 85 1013.2
20260905084556 65 0 0.0 0.0 0.00 0.00 0.00 85 1013.2
20260905083050 65 0 0.0 0.0 0.00 0.00 0.00 84 1013.3
20260905081547 65 0 0.0 0.0 0.00 0.00 0.00 84 1013.4
20260905080046 65 0 0.0 0.0 0.00 0.00 0.00 84 1013.6
20260905074600 66 0 0.0 1.0 0.00 0.00 0.00 84 1013.5
20260905073102 66 0 0.0 0.0 0.00 0.00 0.00 83 1013.5
20260905071548 66 0 0.0 0.0 0.00 0.00 0.00 83 1013.5
20260905070047 67 0 0.0 0.0 0.00 0.00 0.00 83 1013.5
20260905064609 67 0 0.0 0.0 0.00 0.00 0.00 82 1013.4
20260905063053 68 0 0.0 0.0 0.00 0.00 0.00 82 1013.5
20260905061601 68 0 0.0 0.0 0.00 0.00 0.00 82 1013.4
20260905054602 69 0 0.0 0.0 0.00 0.00 0.00 81 1013.4
20260905053048 69 0 0.0 0.0 0.00 0.00 0.00 80 1013.2
20260905051605 69 0 0.0 1.0 0.00 0.00 0.00 80 1013.2
20260905050056 69 0 0.0 0.0 0.00 0.00 0.00 79 1013.3
20260905044559 69 0 0.0 2.0 0.00 0.00 0.00 79 1013.2
20260905043049 70 0 0.0 1.0 0.00 0.00 0.00 78 1013.1
20260905041549 70 0 0.0 1.0 0.00 0.00 0.00 78 1013.0
20260905040058 71 0 0.0 1.0 0.00 0.00 0.00 77 1012.9
20260905034605 71 0 0.0 3.0 0.00 0.00 0.00 76 1012.7
20260905033102 71 248 0.0 4.0 0.00 0.00 0.00 76 1012.5
20260905031546 71 293 0.0 3.0 0.00 0.00 0.00 75 1012.4
20260905030054 72 0 0.0 3.0 0.00 0.00 0.00 74 1012.2
20260905024554 73 296 0.0 4.0 0.00 0.00 0.00 72 1012.0
20260905023123 73 0 0.0 3.0 0.00 0.00 0.00 71 1012.0
20260905021546 74 0 0.0 3.0 0.00 0.00 0.00 70 1012.0
20260905020045 74 0 1.0 3.0 0.00 0.00 0.00 69 1011.9
20260905014556 74 159 1.0 5.0 0.00 0.00 0.00 68 1012.0
20260905013049 75 159 2.0 5.0 0.00 0.00 0.00 67 1012.1
20260905011556 75 211 3.0 6.0 0.00 0.00 0.00 66 1012.1
20260905010047 75 183 2.0 7.0 0.00 0.00 0.00 63 1012.2
20260905004556 76 194 3.0 7.0 0.00 0.00 0.00 62 1012.3
20260905003050 77 159 3.0 7.0 0.00 0.00 0.00 60 1012.3
20260905001549 77 236 3.0 10.0 0.00 0.00 0.00 57 1012.3
20260905000113 78 232 3.0 9.0 0.00 0.00 0.00 60 1012.3
20260904234557 78 205 3.0 9.0 0.00 0.00 0.00 60 1012.7
20260904233050 78 186 3.0 9.0 0.00 0.00 0.00 58 1012.5
20260904231548 79 138 3.0 8.0 0.00 0.00 0.00 58 1012.3
20260904230058 78 0 3.0 9.0 0.00 0.00 0.00 59 1012.5
20260904224603 79 152 5.0 11.0 0.00 0.00 0.00 58 1012.8
20260904223054 79 190 3.0 8.0 0.00 0.00 0.00 58 1012.7
20260904221547 79 176 3.0 9.0 0.00 0.00 0.00 59 1012.8
20260904220108 79 203 3.0 11.0 0.00 0.00 0.00 59 1012.8
20260904214553 80 257 3.0 9.0 0.00 0.00 0.00 59 1012.8
20260904213051 79 190 3.0 10.0 0.00 0.00 0.00 60 1012.8
20260904211554 79 206 3.0 9.0 0.00 0.00 0.00 60 1012.8
20260904210059 80 140 2.0 7.0 0.00 0.00 0.00 60 1012.9
20260904204558 79 188 3.0 9.0 0.00 0.00 0.00 61 1013.0
20260904203050 79 181 1.0 10.0 0.00 0.00 0.00 61 1013.1
20260904201548 79 173 5.0 10.0 0.00 0.00 0.00 60 1013.1
20260904200059 79 202 2.0 11.0 0.00 0.00 0.00 60 1013.2
20260904194601 79 181 3.0 10.0 0.00 0.00 0.00 61 1013.2
20260904193049 79 246 4.0 7.0 0.00 0.00 0.00 61 1013.5
20260904191550 78 238 1.0 9.0 0.00 0.00 0.00 62 1013.7
20260904190058 78 110 2.0 8.0 0.00 0.00 0.00 62 1014.0
20260904184602 78 221 2.0 10.0 0.00 0.00 0.00 62 1014.1
20260904183049 78 126 4.0 9.0 0.00 0.00 0.00 61 1014.0
20260904181606 77 234 2.0 8.0 0.00 0.00 0.00 63 1014.0
20260904180116 77 190 2.0 6.0 0.00 0.00 0.00 63 1014.0
20260904174610 76 207 3.0 7.0 0.00 0.00 0.00 64 1014.1
20260904173051 75 0 2.0 5.0 0.00 0.00 0.00 64 1014.0
20260904171545 77 215 3.0 7.0 0.00 0.00 0.00 64 1014.0
20260904170048 76 239 1.0 5.0 0.00 0.00 0.00 67 1013.9
20260904164555 74 155 1.0 6.0 0.00 0.00 0.00 69 1013.8
20260904163102 73 206 0.0 5.0 0.00 0.00 0.00 73 1013.7
20260904161549 72 103 1.0 7.0 0.00 0.00 0.00 78 1013.7
20260904160057 70 129 0.0 6.0 0.00 0.00 0.00 81 1013.6
20260904154555 69 0 1.0 4.0 0.00 0.00 0.00 85 1013.4
20260904153051 68 0 1.0 4.0 0.00 0.00 0.00 86 1013.4
20260904151546 66 170 1.0 4.0 0.00 0.00 0.00 87 1013.6
20260904150053 65 126 1.0 7.0 0.00 0.00 0.00 88 1013.5
20260904144552 64 136 1.0 4.0 0.00 0.00 0.00 88 1013.4
20260904143049 63 92 1.0 3.0 0.00 0.00 0.00 88 1013.3
20260904141545 62 0 1.0 3.0 0.00 0.00 0.00 88 1013.1
20260904140046 62 0 0.0 1.0 0.00 0.00 0.00 87 1012.9
20260904134552 62 0 0.0 0.0 0.00 0.00 0.00 87 1012.7
20260904133057 62 0 0.0 0.0 0.00 0.00 0.00 87 1012.8
20260904131555 62 0 0.0 0.0 0.00 0.00 0.00 87 1012.8